Weather History for Salzburg-Flughafen, Austria

Change the Weather History Date:

Monday, April 22, 2013

  Actual Average Record
Temperature  
Mean Temperature 52 °F -  
Max Temperature 55 °F 62 °F - ()
Min Temperature 50 °F 44 °F - ()
Degree Days  
Heating Degree Days 12    
Growing Degree Days 2 (Base 50)    
Moisture  
Dew Point 45 °F    
Average Humidity 78    
Maximum Humidity 88    
Minimum Humidity 62    
Precipitation  
Precipitation 0.00 in 0.15 in - ()
Sea Level Pressure  
Sea Level Pressure 30.03 in    
Wind  
Wind Speed 5 mph ()    
Max Wind Speed 10 mph    
Max Gust Speed -    
Visibility 6.3 miles    
Events Rain    
T = Trace of Precipitation, MM = Missing Value Source: Averaged Metar Reports

Daily Weather History Graph

Daily Weather History Graph

Search for Another Location

Airport:

Trip Planner

Search our weather history database for the weather conditions in past years. The results will help you decide how hot, cold, wet, or windy it might be!

Date:

Astronomy

Apr. 22, 2013 Rise Set
Actual Time 6:05 AM CEST 8:07 PM CEST
Civil Twilight 5:32 AM CEST 8:41 PM CEST
Nautical Twilight 4:51 AM CEST 9:22 PM CEST
Astronomical Twilight 4:05 AM CEST 10:08 PM CEST
Moon 4:24 PM CEST (4/22) 4:07 AM CEST (4/22)
Length of Visible Light 15h 08m
Length of Day
14h 01m
Waxing Gibbous, 86% of the Moon is Illuminated
Apr 22
Waxing Gibbous
Apr 25
Full
May 2
Last Quarter
May 10
New
May 18
First Quarter

Hourly Weather History & Observations

Time (CEST) Temp. Dew Point Humidity Pressure Visibility Wind Dir Wind Speed Gust Speed Precip Events Conditions
12:20 AM 51.8 °F 46.4 °F 82% 30.01 in 6.2 mi North 10.4 mph - N/A   Mostly Cloudy
12:50 AM 51.8 °F 46.4 °F 82% 30.01 in 6.2 mi North 8.1 mph - N/A   Overcast
1:20 AM 51.8 °F 46.4 °F 82% 30.01 in 6.2 mi North 9.2 mph - N/A   Overcast
1:50 AM 51.8 °F 44.6 °F 76% 30.01 in 6.2 mi NNW 9.2 mph - N/A   Overcast
2:00 AM 51 °F 45 °F 74% 30.01 in 7 mi NNW 8.9 mph - -  
2:20 AM 51.8 °F 44.6 °F 76% 30.01 in 6.2 mi NNW 6.9 mph - N/A   Mostly Cloudy
2:50 AM 51.8 °F 44.6 °F 76% 30.01 in 6.2 mi North 5.8 mph - N/A   Overcast
3:20 AM 50.0 °F 44.6 °F 82% 30.01 in 6.2 mi NW 5.8 mph - N/A   Overcast
3:50 AM 50.0 °F 44.6 °F 82% 30.01 in 6.2 mi NNW 6.9 mph - N/A   Overcast
4:20 AM 50.0 °F 44.6 °F 82% 30.01 in 6.2 mi WNW 6.9 mph - N/A   Overcast
4:50 AM 50.0 °F 44.6 °F 82% 30.01 in 6.2 mi WNW 6.9 mph - N/A   Overcast
5:00 AM 51 °F 44 °F 70% 30.01 in 6 mi WNW 6.7 mph - -   Overcast
5:20 AM 50.0 °F 44.6 °F 82% 30.01 in 6.2 mi West 3.5 mph - N/A   Overcast
5:50 AM 50.0 °F 42.8 °F 76% 30.01 in 6.2 mi WNW 5.8 mph - N/A   Overcast
6:20 AM 50.0 °F 44.6 °F 82% 30.01 in 6.2 mi WNW 5.8 mph - N/A   Overcast
6:50 AM 50.0 °F 44.6 °F 82% 30.01 in 6.2 mi Variable 2.3 mph - N/A   Overcast
7:20 AM 50.0 °F 44.6 °F 82% 30.01 in 6.2 mi North 4.6 mph - N/A   Overcast
7:50 AM 50.0 °F 44.6 °F 82% 30.01 in 6.2 mi NE 3.5 mph - N/A   Overcast
8:00 AM 50 °F 45 °F 75% 30.04 in 6 mi NE 4.5 mph - -   Overcast
8:20 AM 50.0 °F 44.6 °F 82% 30.04 in 6.2 mi North 3.5 mph - N/A   Overcast
8:50 AM 50.0 °F 44.6 °F 82% 30.04 in 6.2 mi NW 5.8 mph - N/A   Overcast
9:20 AM 50.0 °F 44.6 °F 82% 30.04 in 6.2 mi West 4.6 mph - N/A   Overcast
9:50 AM 50.0 °F 44.6 °F 82% 30.04 in 6.2 mi WNW 6.9 mph - N/A   Overcast
10:20 AM 50.0 °F 44.6 °F 82% 30.04 in 6.2 mi WNW 6.9 mph - N/A   Overcast
10:50 AM 51.8 °F 44.6 °F 76% 30.04 in 6.2 mi WSW 3.5 mph - N/A   Overcast
11:00 AM 51 °F 45 °F 72% 30.06 in 7 mi WSW 4.5 mph - - Rain Light Drizzle
11:20 AM 51.8 °F 44.6 °F 76% 30.04 in 6.2 mi Variable 2.3 mph - N/A   Overcast
11:50 AM 51.8 °F 44.6 °F 76% 30.04 in 6.2 mi South 3.5 mph - N/A   Overcast
12:20 PM 51.8 °F 44.6 °F 76% 30.04 in 6.2 mi Variable 2.3 mph - N/A   Overcast
12:50 PM 51.8 °F 44.6 °F 76% 30.04 in 6.2 mi Variable 2.3 mph - N/A   Mostly Cloudy
1:20 PM 53.6 °F 44.6 °F 72% 30.04 in 6.2 mi Variable 2.3 mph - N/A   Mostly Cloudy
1:50 PM 53.6 °F 44.6 °F 72% 30.04 in 6.2 mi NNW 3.5 mph - N/A   Mostly Cloudy
2:00 PM 54 °F 45 °F 62% 30.04 in 7 mi NNW 4.5 mph - -   Partly Cloudy
2:20 PM 53.6 °F 44.6 °F 72% 30.04 in 6.2 mi NW 4.6 mph - N/A   Mostly Cloudy
2:50 PM 53.6 °F 44.6 °F 72% 30.01 in 6.2 mi NW 5.8 mph - N/A   Mostly Cloudy
3:20 PM 53.6 °F 46.4 °F 77% 30.01 in 6.2 mi NNW 4.6 mph - N/A   Mostly Cloudy
3:50 PM 53.6 °F 46.4 °F 77% 30.01 in 6.2 mi NNW 5.8 mph - N/A   Mostly Cloudy
4:20 PM 53.6 °F 46.4 °F 77% 30.01 in 6.2 mi NW 5.8 mph - N/A   Mostly Cloudy
4:50 PM 55.4 °F 46.4 °F 72% 30.01 in 6.2 mi Variable 2.3 mph - N/A   Mostly Cloudy
5:00 PM 54 °F 46 °F 65% 30.01 in 8 mi 2.2 mph - -   Overcast
5:20 PM 53.6 °F 44.6 °F 72% 30.01 in 6.2 mi NW 4.6 mph - N/A   Mostly Cloudy
5:50 PM 55.4 °F 46.4 °F 72% 30.01 in 6.2 mi NW 4.6 mph - N/A   Mostly Cloudy
6:20 PM 55.4 °F 44.6 °F 67% 30.01 in 6.2 mi WNW 4.6 mph - N/A   Mostly Cloudy
6:50 PM 55.4 °F 44.6 °F 67% 30.01 in 6.2 mi Variable 1.2 mph - N/A   Mostly Cloudy
7:20 PM 53.6 °F 46.4 °F 77% 30.01 in 6.2 mi Variable 1.2 mph - N/A   Mostly Cloudy
7:50 PM 53.6 °F 46.4 °F 77% 30.01 in 6.2 mi Variable 2.3 mph - N/A   Mostly Cloudy
8:00 PM 54 °F 46 °F 67% 30.03 in 8 mi 2.2 mph - -   Partly Cloudy
8:20 PM 53.6 °F 46.4 °F 77% 30.04 in 6.2 mi SSW 3.5 mph - N/A   Mostly Cloudy
8:50 PM 51.8 °F 48.2 °F 88% 30.04 in 6.2 mi South 3.5 mph - N/A   Mostly Cloudy
9:20 PM 53.6 °F 48.2 °F 82% 30.06 in 6.2 mi Variable 2.3 mph - N/A Rain Light Rain
9:50 PM 51.8 °F 48.2 °F 88% 30.06 in 6.2 mi South 3.5 mph - N/A Rain Light Rain
10:20 PM 51.8 °F 48.2 °F 88% 30.06 in 6.2 mi Variable 2.3 mph - N/A   Mostly Cloudy
10:50 PM 51.8 °F 48.2 °F 88% 30.09 in 6.2 mi South 4.6 mph - N/A   Mostly Cloudy
11:00 PM 51 °F 48 °F 87% 30.10 in 6 mi South 4.5 mph - - Rain Light Rain
11:20 PM 51.8 °F 48.2 °F 88% 30.09 in 6.2 mi South 4.6 mph - N/A   Mostly Cloudy
11:50 PM 51.8 °F 48.2 °F 88% 30.09 in 5.0 mi South 3.5 mph - N/A Rain Light Rain Showers